Tracking 29967 objects as of 5-Dec-2024
HD Live streaming from Space Station
objects crossing your sky now

CZ-3C DEB

Track CZ-3C DEB now!


NORAD ID: 40203
Int'l Code: 2012-008N
Perigee: 490.6 km
Apogee: 34,612.3 km
Inclination: 20.9 °
Period: 613.7 minutes
Semi major axis: 23922 km
RCS: Unknown
Launch date: February 24, 2012
Source: People's Republic of China (PRC)
Launch site: Xichang Space Center, China (XSC)

Note: This is SATELLITE DEBRIS
Your satellite tracking list
Your tracking list is empty




NASA's NSSDC Master Catalog

Two Line Element Set (TLE):
1 40203U 12008N   24339.32327136  .00000224  00000-0  14915-2 0  9998
2 40203  20.8607  50.5165 7131729 143.4780 297.5525  2.34636243 94239
Source of the keplerian elements: AFSPC